Wahiawa, HI (96786)

5:33 PM HST on August 30, 2015 (GMT -1000)
Wahiawa Heights | | Change Station
CLOSE
Current Station
Personal Weather Station
Location: Wahiawā, HI
Elevation: 1185 ft
Nearby Weather Stations

Elev 1185 ft 21.51 °N, 158.00 °W | Updated 13 minutes ago

Clear
Clear
84.7 °F
Feels Like 93 °F
N
2.2
Wind Variable Wind from West

Today
High -- | Low -- °F
--% Chance of Precip.
Yesterday
High -- | Low -- °F
Precip. -- in
6:14 AM 6:50 PM
Full, 97% visible
Pressure 29.81 in
Visibility 10.0 miles
Clouds Clear
Heat Index 93 °F
Dew Point 75 °F
Humidity 72%
Rainfall 0.00 in
Snow Depth Not available.
UV 2 out of 12
Pollen Not available.
Air Quality Not available.
Flu Activity Not available.
METAR PHHI 310258Z AUTO 05009KT 350V100 10SM CLR 29/23 A2985 RMK AO2 SLP095 T02910228 57013 $
Pressure 29.81 in
Visibility 10.0 miles
Clouds Clear
Heat Index 93 °F
Dew Point 75 °F
Humidity 72%
Rainfall 0.00 in
Snow Depth Not available.
UV 2 out of 12
Pollen Not available.
Air Quality Not available.
Flu Activity Not available.
METAR PHHI 310258Z AUTO 05009KT 350V100 10SM CLR 29/23 A2985 RMK AO2 SLP095 T02910228 57013 $
Hurricane Ignacio strengthened into a Category 4 hurricane Saturday and its current forecast track takes it just north of The Big Island Monday. While it is not a direct threat to make landfall in Hawaii, a track slightly to the south of its current forecast track could deteriorate weather conditions in the state. See the forecast track

10-Day Weather Forecast

×

Almanac

Astronomy

Aug. 30, 2015 Rise Set
Actual Time
Civil Twilight
Nautical Twilight
Astronomical Twilight
Moon
Length of Visible Light
Length of Day
Tomorrow will be .
, % of the Moon is Illuminated

Today's Extremes

State Highs State Lows

Community

WunderPhotos

Upload Photos

1,851,175 photos uploaded!

WunderBlogs® & News

Nearby

Air Quality

  Air Quality AQ Index Pollutant
Not available.

Snow Depth

Station Depth Elevation

Earthquake Activity

City Distance Mag. Time & Date
Minimum magnitude displayed is 2.5.

Coastal Water Temperatures

Place Temperature

Stations

Nearby Weather Stations

Station Location Temp. Windchill Dew Point Humidity Wind Precip. Elev Updated Type